#timestamp,LO_Frequency,Hit,StdDev 
1550638815.5,286047001.1,N
1550638835.4,286046998.9,N
1550638855.2,286047001.1,N
1550638875.1,286047002.4,N
1550638876.0,286047002.4,N
1550638895.8,286047002.8,N
1550638915.6,286047000.3,N
1550638935.5,286047001.9,N
1550638955.3,286046999.9,N
1550638975.1,286047001.7,N
1550638995.9,286047002.0,N
1550639015.7,286047004.2,N
1550639035.6,286047001.8,N
1550639085.4,286047002.8,E
1550639095.3,286047000.6,N
1550639115.2,286046997.8,P
1550639135.0,286046995.7,P
1550639135.9,286046995.7,N
1550639155.8,286046995.1,N
1550639175.6,286046996.8,N
1550639195.4,286046997.1,N
1550639215.3,286046997.2,N
1550639235.1,286046993.4,Y
1550639255.9,286046995.1,P
1550639275.7,286046993.5,P
1550639295.5,286046993.4,P
1550639315.4,286046993.9,Y
1550639335.2,286046998.9,P
1550639355.0,286047000.8,N
1550639356.0,286047000.8,N
1550639375.8,286046999.9,N
1550639395.6,286046999.9,N
1550639415.5,286046998.6,N
1550639435.3,286046998.8,N
1550639455.1,286047002.7,N
1550639475.9,286047002.3,N
1550639495.7,286047001.1,N
1550639515.6,286047000.8,N
1550639535.4,286046998.3,N
1550639555.2,286046998.6,N
1550639575.1,286047000.4,N
1550639576.0,286047000.4,N
1550639595.8,286047002.2,N
1550639615.6,286047004.2,N
1550639635.5,286047003.6,N
1550639655.3,286047006.0,N
1550639675.2,286047003.9,N
1550639695.9,286047004.1,N
1550639715.7,286047003.3,N
1550639735.6,286047004.7,N
1550639755.4,286047007.6,N
1550639775.3,286047005.8,N
1550639795.1,286047002.9,N
1550639796.0,286047002.9,N
1550639815.8,286047005.2,N
1550639835.7,286047005.2,N
1550639855.5,286047004.8,N
1550639875.3,286047005.1,N
1550639895.2,286047006.0,N
1550639915.0,286047003.2,N
1550639915.9,286047003.2,N
1550639935.8,286047003.1,N
1550639955.6,286047003.9,N
1550639975.4,286047001.7,N
1550639995.3,286047004.2,N
1550640015.1,286047001.5,N
1550640035.8,286047003.6,N
1550640055.7,286047004.6,N
1550640075.5,286047006.8,Y
1550640095.4,286047004.3,P
1550640115.2,286047003.9,P
1550640135.0,286047004.1,P
1550640135.9,286047004.1,Y
1550640155.8,286047000.8,P
1550640175.6,286046998.2,N
1550640195.5,286046998.3,N
1550640215.3,286047001.2,N
1550640235.1,286046998.8,N
1550640255.9,286046996.5,N
1550640275.7,286046996.5,N
1550640295.6,286046997.9,N
1550640315.4,286046994.9,N
1550640335.2,286046998.0,N
1550640355.1,286046997.9,N
1550640356.0,286046997.9,N
1550640375.8,286046995.6,N
1550640395.6,286046996.9,N
1550640415.5,286046997.1,N
1550640435.3,286046995.3,N
1550640455.2,286046995.1,N
1550640475.9,286047011.9,Y
1550640495.7,286047000.8,P
1550640515.6,286047002.5,N
1550640535.4,286047002.5,N
1550640555.2,286046999.8,N
1550640575.1,286046998.1,N
1550640576.0,286046998.1,N
1550640595.8,286047000.7,N
1550640615.7,286046998.8,N
1550640635.5,286047000.3,N
1550640655.3,286047000.4,N
1550640675.2,286047000.9,N
1550640695.0,286046998.8,N
1550640695.9,286046998.8,N
1550640715.8,286046999.4,N
1550640735.6,286046997.3,N
1550640755.4,286046997.2,N
1550640775.3,286046998.6,N
1550640795.1,286046997.8,N
1550640815.8,286046999.2,N
1550640835.7,286046997.3,N
1550640855.5,286046997.5,N
1550640875.4,286046999.5,N
1550640895.2,286046998.4,N
1550640915.0,286046999.4,N
1550640915.9,286046999.4,N
1550640935.8,286047002.7,N
1550640955.6,286047000.3,N
1550640975.4,286047002.7,N
1550640995.3,286047000.0,N
1550641015.1,286047001.9,N
1550641035.9,286047002.4,N
1550641055.7,286047002.4,N
1550641075.5,286047000.9,N
1550641095.4,286046998.1,N
1550641115.2,286047000.0,N
1550641135.0,286047000.1,N
1550641135.9,286047000.1,N
1550641155.8,286046998.2,N
1550641175.6,286046998.6,N
1550641195.5,286046998.3,N
1550641215.3,286046998.7,N
1550641235.1,286046999.4,N
1550641255.9,286046999.3,N
1550641275.7,286046996.9,N
1550641295.6,286046997.5,N
1550641315.4,286046999.6,N
1550641335.2,286046997.0,N
1550641355.1,286046999.8,N
1550641356.0,286046999.8,N
1550641375.8,286046998.6,N
1550641395.6,286047000.3,N
1550641415.5,286046999.0,N
1550641435.3,286046996.6,N
1550641455.2,286046997.5,N
1550641475.9,286046997.2,N
1550641495.7,286046995.0,N
1550641515.6,286046997.8,N
1550641535.4,286046996.8,N
1550641555.2,286046997.3,N
1550641575.1,286046997.6,N
1550641576.0,286046997.6,N
1550641595.8,286046995.3,Y
1550641615.7,286046997.6,P
1550641635.5,286046998.4,P
1550641655.3,286046998.9,N
1550641675.2,286046998.3,Y
1550641695.0,286047000.2,P
1550641695.9,286047000.2,N
1550641715.8,286047002.4,N
1550641735.6,286047000.2,N
1550641755.4,286047000.0,N
1550641775.3,286047001.1,N
1550641795.1,286046998.2,N
1550641815.9,286046996.7,N
1550641835.7,286046999.6,N
1550641855.5,286047002.7,N
1550641875.4,286047000.6,N
1550641895.2,286046999.9,N
1550641915.0,286047000.6,N
1550641915.9,286047000.6,N
1550641935.8,286047001.4,N
1550641955.6,286047003.9,N
1550641975.5,286047004.4,N
1550641995.3,286047000.6,N
1550642015.1,286046999.3,N
1550642035.9,286046999.6,N
1550642055.7,286046999.5,N
1550642075.5,286046996.6,N
1550642095.4,286046998.3,N
1550642115.2,286046998.3,N
1550642135.1,286047000.5,N
1550642136.0,286047000.5,N
1550642155.8,286046998.5,N
1550642175.6,286046999.6,N
1550642195.5,286046998.1,N
1550642215.3,286047000.4,N
1550642235.1,286047000.9,N
1550642255.9,286047000.2,N
1550642275.7,286047000.9,N
1550642295.6,286046998.1,N
1550642315.4,286047000.7,N
1550642335.2,286047000.3,N
1550642355.1,286047002.1,N
1550642356.0,286047002.1,N
1550642375.8,286047002.5,N
1550642395.7,286046998.1,N
